Total_Precipitation_Accumulation
0.52 0.59 0.57 0.60 0.57 0.70 0.89 0.96 0.94 1.11 1.20 1.12 0.96 0.86 0.81 0.74 0.63 0.69 0.78 0.68 0.56 0.62 0.80 0.85 0.78 0.75 0.75 0.67 0.64 0.67 0.70 0.68 0.65 0.53 0.41 0.38 0.44 0.49 0.45 0.38 0.33 0.29 0.29
0.89 0.99 0.95 0.93 0.84 0.89 1.02 1.12 1.12 1.49 1.42 1.37 1.09 0.98 0.92 0.86 0.78 0.69 0.70 0.80 0.64 0.51 0.57 0.72 0.82 0.82 0.81 0.77 0.71 0.68 0.66 0.65 0.58 0.43 0.35 0.32 0.39 0.48 0.48 0.43 0.36 0.29 0.22
1.22 1.31 1.32 1.23 1.24 1.22 1.33 1.33 1.45 1.64 1.38 1.32 1.16 1.12 1.03 0.90 0.77 0.74 0.70 0.78 0.73 0.57 0.42 0.47 0.64 0.74 0.83 0.90 0.91 0.82 0.67 0.59 0.54 0.42 0.33 0.30 0.36 0.43 0.44 0.46 0.42 0.32 0.22
1.55 1.64 1.51 1.42 1.66 1.70 1.68 1.73 1.77 1.76 1.63 1.53 1.32 1.07 0.97 0.93 0.67 0.60 0.53 0.53 0.59 0.50 0.45 0.50 0.57 0.63 0.77 0.90 1.01 1.00 0.87 0.71 0.61 0.52 0.41 0.34 0.39 0.44 0.40 0.39 0.39 0.32 0.24
1.62 1.75 1.59 1.64 1.84 1.87 1.86 1.72 1.95 1.89 1.83 1.72 1.39 1.10 0.85 0.69 0.58 0.46 0.39 0.32 0.36 0.38 0.38 0.41 0.41 0.45 0.65 0.89 0.98 1.04 1.03 0.95 0.81 0.69 0.62 0.53 0.49 0.44 0.42 0.41 0.38 0.33 0.26
1.74 1.86 1.73 1.79 1.93 1.97 1.90 1.91 1.97 1.98 1.85 1.75 1.33 1.00 0.81 0.57 0.47 0.41 0.32 0.30 0.26 0.23 0.24 0.32 0.43 0.37 0.49 0.68 0.77 0.92 1.04 1.02 0.93 0.86 0.82 0.78 0.73 0.63 0.51 0.47 0.47 0.43 0.35
1.84 1.99 1.86 1.95 1.95 1.81 1.80 1.96 2.05 1.85 1.64 1.76 1.49 0.94 0.61 0.44 0.39 0.34 0.33 0.34 0.28 0.23 0.21 0.30 0.38 0.43 0.46 0.48 0.53 0.65 0.92 1.08 1.03 0.93 0.87 0.87 0.96 0.97 0.73 0.67 0.67 0.61 0.52
1.77 1.79 1.79 1.75 1.75 1.75 1.74 1.78 1.95 1.75 1.42 1.59 1.51 1.22 0.72 0.53 0.45 0.33 0.34 0.33 0.28 0.27 0.28 0.32 0.41 0.53 0.51 0.60 0.60 0.49 0.73 1.04 1.11 1.11 1.02 0.97 1.06 1.13 0.95 0.95 0.87 0.74 0.64
1.50 1.51 1.52 1.64 1.83 1.87 1.73 1.69 1.72 1.64 1.36 1.35 1.45 1.46 1.00 0.70 0.53 0.28 0.28 0.31 0.39 0.45 0.43 0.48 0.50 0.57 0.59 0.71 0.86 0.78 0.59 0.69 0.86 1.11 1.20 1.12 1.06 1.04 1.15 1.23 1.13 0.91 0.72
1.36 1.34 1.37 1.41 1.45 1.52 1.50 1.38 1.45 1.53 1.48 1.28 1.36 1.38 1.26 1.11 0.92 0.54 0.37 0.37 0.47 0.52 0.55 0.51 0.48 0.49 0.63 0.83 1.01 1.00 0.86 0.72 0.67 0.91 1.17 1.25 1.12 1.03 1.17 1.37 1.50 1.28 0.88
1.25 1.25 1.20 1.18 1.14 1.18 1.28 1.29 1.33 1.34 1.36 1.30 1.27 1.30 1.29 1.27 1.26 1.08 0.72 0.66 0.64 0.53 0.55 0.53 0.49 0.52 0.67 0.78 0.89 0.92 0.99 0.87 0.81 0.77 0.82 0.96 1.02 1.02 1.07 1.29 1.66 1.72 1.41
1.02 1.01 1.04 1.05 1.03 1.08 1.16 1.23 1.26 1.19 1.22 1.25 1.26 1.29 1.30 1.26 1.30 1.34 1.08 0.92 0.80 0.65 0.64 0.58 0.53 0.56 0.67 0.73 0.69 0.81 0.77 0.72 0.71 0.74 0.72 0.80 0.81 0.86 0.95 1.17 1.51 1.79 1.84
0.73 0.76 0.76 0.84 0.89 0.98 1.01 1.01 1.08 1.15 1.25 1.27 1.25 1.28 1.31 1.25 1.20 1.24 1.22 1.02 0.90 0.76 0.75 0.70 0.60 0.59 0.58 0.71 0.67 0.56 0.44 0.38 0.39 0.42 0.43 0.50 0.58 0.66 0.79 0.92 1.13 1.39 1.66
0.55 0.60 0.69 0.81 0.90 0.94 0.94 0.97 0.97 1.02 1.15 1.24 1.28 1.38 1.26 1.15 1.14 1.17 1.24 1.21 1.03 0.90 0.92 0.78 0.65 0.59 0.59 0.61 0.53 0.39 0.32 0.24 0.24 0.23 0.20 0.23 0.30 0.38 0.51 0.67 0.83 0.95 1.08
0.53 0.57 0.65 0.76 0.88 0.99 1.02 1.00 1.01 1.09 1.23 1.30 1.40 1.43 1.29 1.18 1.18 1.18 1.28 1.34 1.24 1.02 0.92 0.88 0.72 0.59 0.56 0.50 0.40 0.39 0.39 0.29 0.20 0.16 0.12 0.13 0.17 0.21 0.29 0.42 0.56 0.69 0.78
0.49 0.54 0.62 0.68 0.71 0.77 0.82 0.83 0.91 1.03 1.17 1.23 1.24 1.27 1.27 1.24 1.28 1.23 1.29 1.35 1.36 1.22 0.94 0.92 0.84 0.63 0.63 0.43 0.37 0.37 0.33 0.26 0.19 0.14 0.11 0.12 0.14 0.18 0.22 0.27 0.37 0.49 0.60
0.43 0.48 0.53 0.54 0.54 0.55 0.57 0.62 0.73 0.87 0.94 0.95 0.93 0.96 0.98 1.03 1.08 1.07 1.13 1.18 1.24 1.25 0.97 0.95 1.08 0.95 0.86 0.67 0.51 0.46 0.30 0.23 0.23 0.18 0.13 0.11 0.11 0.15 0.20 0.23 0.26 0.32 0.41
0.38 0.41 0.43 0.44 0.43 0.45 0.52 0.57 0.65 0.73 0.80 0.79 0.78 0.78 0.75 0.82 0.91 0.92 0.96 1.04 1.16 1.28 1.13 0.99 1.08 1.13 1.07 0.88 0.74 0.61 0.42 0.29 0.29 0.26 0.17 0.13 0.12 0.13 0.19 0.23 0.23 0.25 0.30
0.31 0.34 0.38 0.42 0.45 0.52 0.62 0.72 0.78 0.75 0.67 0.61 0.56 0.53 0.54 0.60 0.68 0.75 0.84 0.89 0.96 1.20 1.22 1.08 1.03 1.19 1.17 1.00 0.95 0.76 0.64 0.61 0.41 0.34 0.22 0.16 0.17 0.17 0.20 0.25 0.26 0.26 0.26
0.34 0.40 0.45 0.52 0.59 0.62 0.65 0.69 0.70 0.71 0.66 0.55 0.44 0.37 0.36 0.44 0.56 0.63 0.69 0.76 0.82 0.91 1.02 1.06 1.06 1.16 1.16 1.01 1.05 0.95 0.85 0.76 0.63 0.48 0.40 0.25 0.20 0.23 0.25 0.26 0.28 0.31 0.33
0.29 0.42 0.50 0.56 0.64 0.61 0.57 0.56 0.55 0.49 0.49 0.48 0.41 0.32 0.29 0.32 0.39 0.48 0.53 0.60 0.67 0.73 0.78 0.87 0.96 1.05 1.15 1.04 0.93 0.92 0.88 0.83 0.81 0.79 0.80 0.54 0.32 0.27 0.29 0.30 0.33 0.39 0.46
0.27 0.35 0.38 0.43 0.49 0.44 0.37 0.35 0.36 0.37 0.37 0.38 0.37 0.32 0.27 0.25 0.27 0.32 0.38 0.43 0.46 0.49 0.58 0.69 0.75 0.83 0.97 1.00 0.94 0.93 0.90 0.84 0.87 0.88 0.97 1.03 0.78 0.59 0.48 0.33 0.31 0.37 0.49
0.32 0.36 0.35 0.35 0.37 0.40 0.33 0.27 0.25 0.27 0.32 0.33 0.33 0.30 0.22 0.18 0.19 0.18 0.20 0.25 0.33 0.33 0.35 0.48 0.53 0.50 0.60 0.68 0.77 0.91 0.97 0.94 0.98 1.07 1.08 1.23 1.34 1.16 0.78 0.52 0.40 0.34 0.42
0.44 0.45 0.39 0.38 0.38 0.36 0.29 0.23 0.21 0.22 0.28 0.32 0.32 0.28 0.23 0.18 0.17 0.18 0.19 0.21 0.21 0.21 0.21 0.23 0.27 0.33 0.41 0.50 0.55 0.62 0.82 1.01 1.05 1.13 1.19 1.36 1.53 1.78 1.42 0.93 0.69 0.51 0.49
0.49 0.49 0.44 0.41 0.42 0.39 0.29 0.21 0.22 0.30 0.34 0.35 0.35 0.31 0.27 0.22 0.19 0.16 0.19 0.22 0.19 0.17 0.18 0.21 0.22 0.28 0.35 0.41 0.48 0.50 0.54 0.60 0.77 1.06 1.24 1.42 1.56 1.73 2.08 1.72 1.09 0.69 0.52
0.51 0.47 0.45 0.48 0.49 0.47 0.37 0.25 0.23 0.29 0.37 0.39 0.45 0.41 0.30 0.24 0.22 0.18 0.18 0.19 0.18 0.16 0.16 0.17 0.21 0.23 0.25 0.29 0.35 0.38 0.36 0.37 0.42 0.62 0.81 0.91 1.06 1.26 1.77 2.14 1.83 1.23 0.81